FW7834 Weather Reports


time (UTC)temp
C
wind
direction
speed
KPH
gust
KPH
rain 1hr
cm
rain 24hr
cm
rain mn
cm
humidity
%
barometer
mb
20260503194732 25 213 0.0 1.6 0.00 0.00 0.00 52 1014.2
20260503194226 24 275 0.0 0.0 0.00 0.00 0.00 53 1014.0
20260503193723 25 44 0.0 1.6 0.00 0.00 0.00 50 1014.2
20260503193219 24 232 1.6 1.6 0.00 0.00 0.00 56 1014.3
20260503192715 25 87 1.6 3.2 0.00 0.00 0.00 51 1014.4
20260503192210 25 210 0.0 1.6 0.00 0.00 0.00 54 1014.4
20260503191707 24 230 1.6 3.2 0.00 0.00 0.00 53 1014.5
20260503191204 23 237 1.6 1.6 0.00 0.00 0.00 52 1014.3
20260503190701 23 282 1.6 3.2 0.00 0.00 0.00 53 1014.7
20260503190158 23 62 1.6 1.6 0.00 0.00 0.00 53 1014.8
20260503185655 22 201 0.0 1.6 0.00 0.00 0.00 53 1014.7
20260503185150 22 78 1.6 3.2 0.00 0.00 0.00 54 1014.6
20260503184645 23 21 3.2 3.2 0.00 0.00 0.00 53 1014.7
20260503184142 22 131 1.6 1.6 0.00 0.00 0.00 52 1014.9
20260503183638 23 330 0.0 1.6 0.00 0.00 0.00 55 1014.9
20260503183136 22 45 0.0 0.0 0.00 0.00 0.00 54 1015.2
20260503182634 22 103 0.0 0.0 0.00 0.00 0.00 54 1015.1
20260503182132 22 31 1.6 1.6 0.00 0.00 0.00 55 1015.2
20260503181629 21 94 1.6 3.2 0.00 0.00 0.00 55 1014.9
20260503181125 22 45 0.0 1.6 0.00 0.00 0.00 55 1015.2
20260503180622 21 128 0.0 0.0 0.00 0.00 0.00 56 1015.3
20260503180120 21 13 1.6 3.2 0.00 0.00 0.00 57 1015.2
20260503175617 21 134 0.0 1.6 0.00 0.00 0.00 58 1015.3
20260503175114 21 241 0.0 0.0 0.00 0.00 0.00 60 1015.4
20260503174611 21 91 0.0 0.0 0.00 0.00 0.00 62 1015.5
20260503174108 20 199 1.6 1.6 0.00 0.00 0.00 63 1015.6
20260503173602 20 249 0.0 0.0 0.00 0.00 0.00 66 1015.5
20260503173059 20 2 1.6 3.2 0.00 0.00 0.00 61 1015.5
20260503172556 20 327 1.6 1.6 0.00 0.00 0.00 62 1015.9
20260503172054 19 67 0.0 1.6 0.00 0.00 0.00 64 1015.8
20260503171550 20 128 1.6 1.6 0.00 0.00 0.00 62 1015.8
20260503171048 20 355 0.0 0.0 0.00 0.00 0.00 63 1016.1
20260503170544 19 238 0.0 1.6 0.00 0.00 0.00 65 1016.0
20260503150936 16 196 0.0 0.0 0.00 0.00 0.00 78 1016.3
20260503150433 17 66 0.0 0.0 0.00 0.00 0.00 78 1016.5
20260503131326 11 282 0.0 0.0 0.00 0.00 0.00 96 1016.0
20260503130823 11 240 0.0 0.0 0.00 0.00 0.00 96 1015.9
20260503130321 11 253 0.0 0.0 0.00 0.00 0.00 97 1015.7
20260503110714 11 267 0.0 0.0 0.00 0.00 0.00 91 1016.2
20260503110212 11 269 0.0 0.0 0.00 0.00 0.00 91 1016.2
20260503100138 11 240 0.0 0.0 0.00 0.00 0.00 86 1015.9
20260503081532 11 260 0.0 0.0 0.00 0.00 0.00 84 1016.1
20260503081030 11 265 0.0 0.0 0.00 0.00 0.00 84 1016.1
20260503080526 11 265 0.0 0.0 0.00 0.00 0.00 83 1016.1
20260503072500 12 265 0.0 0.0 0.00 0.00 0.00 79 1015.8
20260503071956 12 266 0.0 0.0 0.00 0.00 0.00 79 1015.9
20260503071453 12 266 0.0 0.0 0.00 0.00 0.00 78 1015.7
20260503070949 12 272 0.0 0.0 0.00 0.00 0.00 77 1015.7
20260503070447 13 268 0.0 0.0 0.00 0.00 0.00 75 1015.9
20260503054900 17 241 0.0 0.0 0.00 0.00 0.00 58 1015.4
20260503054356 17 229 0.0 0.0 0.00 0.00 0.00 58 1015.1
20260503053854 16 250 0.0 0.0 0.00 0.00 0.00 59 1015.4
20260503053352 16 241 0.0 0.0 0.00 0.00 0.00 59 1015.4
20260503052848 17 254 0.0 0.0 0.00 0.00 0.00 58 1015.5
20260503052345 17 245 0.0 0.0 0.00 0.00 0.00 59 1015.6
20260503051841 17 235 0.0 0.0 0.00 0.00 0.00 57 1015.4
20260503051338 17 232 0.0 0.0 0.00 0.00 0.00 57 1015.3
20260503050835 16 240 0.0 1.6 0.00 0.00 0.00 58 1015.3
20260503050331 16 245 0.0 1.6 0.00 0.00 0.00 59 1015.3
20260503045829 16 247 0.0 0.0 0.00 0.00 0.00 60 1015.2
20260503045326 16 247 0.0 0.0 0.00 0.00 0.00 61 1015.5
20260503044822 16 247 0.0 0.0 0.00 0.00 0.00 60 1015.4
20260503044319 17 244 0.0 0.0 0.00 0.00 0.00 57 1015.3
20260503043817 17 241 0.0 0.0 0.00 0.00 0.00 56 1015.2
20260503043314 17 248 0.0 0.0 0.00 0.00 0.00 55 1015.1
20260503042809 17 248 0.0 1.6 0.00 0.00 0.00 55 1015.0
20260503042307 18 249 1.6 1.6 0.00 0.00 0.00 54 1015.2
20260503041802 18 240 1.6 1.6 0.00 0.00 0.00 54 1015.2
20260503041300 17 245 0.0 0.0 0.00 0.00 0.00 55 1014.9
20260503040758 17 253 0.0 0.0 0.00 0.00 0.00 55 1015.0
20260503040255 18 248 0.0 0.0 0.00 0.00 0.00 55 1014.9
20260503035751 18 247 0.0 0.0 0.00 0.00 0.00 55 1014.7
20260503035249 18 247 0.0 0.0 0.00 0.00 0.00 55 1014.8
20260503034746 18 247 0.0 0.0 0.00 0.00 0.00 53 1014.7
20260503034243 18 245 0.0 1.6 0.00 0.00 0.00 52 1014.8
20260503033741 18 271 1.6 1.6 0.00 0.00 0.00 52 1014.5
20260503033238 18 227 0.0 0.0 0.00 0.00 0.00 53 1014.5
20260503032736 19 241 0.0 1.6 0.00 0.00 0.00 52 1014.8
20260503032235 19 240 0.0 0.0 0.00 0.00 0.00 52 1014.6
20260503031731 19 232 0.0 0.0 0.00 0.00 0.00 52 1014.3
20260503031229 19 233 0.0 0.0 0.00 0.00 0.00 52 1014.3
20260503030725 19 237 0.0 0.0 0.00 0.00 0.00 51 1014.3
20260503030221 19 244 0.0 0.0 0.00 0.00 0.00 52 1014.2
20260503025719 20 231 0.0 0.0 0.00 0.00 0.00 52 1014.5
20260503025216 20 212 0.0 0.0 0.00 0.00 0.00 52 1014.4
20260503024713 20 231 0.0 0.0 0.00 0.00 0.00 51 1014.2
20260503024210 20 117 1.6 1.6 0.00 0.00 0.00 51 1014.4
20260503023707 20 90 1.6 3.2 0.00 0.00 0.00 50 1014.3
20260503023203 20 179 1.6 1.6 0.00 0.00 0.00 50 1014.2
20260503022700 21 229 0.0 1.6 0.00 0.00 0.00 51 1014.5
20260503022159 21 175 0.0 1.6 0.00 0.00 0.00 51 1014.4
20260503021656 21 203 0.0 1.6 0.00 0.00 0.00 50 1014.3
20260503021153 21 254 0.0 0.0 0.00 0.00 0.00 51 1014.4
20260503020650 21 175 1.6 3.2 0.00 0.00 0.00 50 1014.3
20260503020148 21 228 0.0 1.6 0.00 0.00 0.00 50 1014.4
20260503015644 21 246 1.6 1.6 0.00 0.00 0.00 50 1014.4
20260503015141 21 235 3.2 3.2 0.00 0.00 0.00 50 1014.5
20260503014637 21 242 1.6 1.6 0.00 0.00 0.00 50 1014.4
20260503014135 21 272 0.0 1.6 0.00 0.00 0.00 51 1014.4
20260503013632 21 239 0.0 0.0 0.00 0.00 0.00 52 1014.5
20260503013130 21 157 1.6 3.2 0.00 0.00 0.00 52 1014.5
20260503012627 20 259 0.0 0.0 0.00 0.00 0.00 57 1014.5
20260503012124 21 356 0.0 1.6 0.00 0.00 0.00 57 1014.6
20260503011620 21 94 1.6 1.6 0.00 0.00 0.00 56 1014.7
20260503011118 21 72 1.6 1.6 0.00 0.00 0.00 56 1014.7
20260503010614 21 180 0.0 1.6 0.00 0.00 0.00 54 1014.8
20260503010111 21 10 1.6 1.6 0.00 0.00 0.00 54 1014.7
20260503005608 21 241 1.6 1.6 0.00 0.00 0.00 54 1014.9
20260503005105 22 212 0.0 1.6 0.00 0.00 0.00 54 1014.8
20260503004601 22 114 1.6 1.6 0.00 0.00 0.00 53 1014.8
20260503004100 22 205 0.0 0.0 0.00 0.00 0.00 53 1014.9
20260503003556 22 208 1.6 4.8 0.00 0.00 0.00 50 1014.9
20260503003053 22 258 1.6 1.6 0.00 0.00 0.00 56 1015.0
20260503002550 21 94 6.4 9.7 0.00 0.00 0.00 55 1015.0
20260503002047 22 195 1.6 1.6 0.00 0.00 0.00 54 1015.0
20260503001543 22 247 0.0 1.6 0.00 0.00 0.00 56 1015.0
20260503001041 22 281 0.0 0.0 0.00 0.00 0.00 55 1015.2
20260503000538 23 236 1.6 3.2 0.00 0.00 0.00 53 1015.0
20260503000035 23 112 1.6 1.6 0.00 0.00 0.00 48 1015.2
20260502235531 23 279 0.0 1.6 0.00 0.00 0.00 48 1015.2
20260502235030 23 56 3.2 8.0 0.00 0.00 0.00 47 1015.3
20260502234525 23 164 0.0 1.6 0.00 0.00 0.00 48 1015.3
20260502234023 24 65 3.2 3.2 0.00 0.00 0.00 46 1015.4
20260502233518 23 250 1.6 1.6 0.00 0.00 0.00 48 1015.4
20260502233015 23 180 1.6 1.6 0.00 0.00 0.00 46 1015.5
20260502232511 23 137 1.6 1.6 0.00 0.00 0.00 47 1015.4
20260502232009 23 284 1.6 3.2 0.00 0.00 0.00 49 1015.4
20260502231505 23 77 3.2 3.2 0.00 0.00 0.00 47 1015.4
20260502231003 23 107 3.2 3.2 0.00 0.00 0.00 49 1015.5
20260502230501 23 256 0.0 1.6 0.00 0.00 0.00 47 1015.6
20260502225959 23 60 1.6 1.6 0.00 0.00 0.00 49 1015.7
20260502225455 23 67 0.0 1.6 0.00 0.00 0.00 48 1015.8
20260502224952 23 173 3.2 3.2 0.00 0.00 0.00 46 1016.0
20260502224448 23 83 3.2 4.8 0.00 0.00 0.00 48 1015.8
20260502223945 23 66 4.8 4.8 0.00 0.00 0.00 49 1016.0
20260502223443 23 333 0.0 1.6 0.00 0.00 0.00 49 1016.1
20260502222941 23 134 1.6 3.2 0.00 0.00 0.00 49 1015.8
20260502222438 23 111 3.2 3.2 0.00 0.00 0.00 49 1016.0
20260502221934 23 125 0.0 0.0 0.00 0.00 0.00 51 1016.1
20260502221430 23 75 3.2 8.0 0.00 0.00 0.00 49 1016.2
20260502220927 24 242 0.0 0.0 0.00 0.00 0.00 49 1016.1
20260502220423 23 66 3.2 4.8 0.00 0.00 0.00 52 1016.4
20260502215920 23 103 1.6 1.6 0.00 0.00 0.00 51 1016.5
20260502215417 23 229 0.0 0.0 0.00 0.00 0.00 54 1016.6
20260502214914 24 150 1.6 1.6 0.00 0.00 0.00 54 1016.4
20260502214410 23 197 3.2 3.2 0.00 0.00 0.00 54 1016.7
20260502213908 22 66 1.6 3.2 0.00 0.00 0.00 55 1016.5
20260502213405 23 41 1.6 1.6 0.00 0.00 0.00 55 1016.6
20260502212904 23 241 0.0 1.6 0.00 0.00 0.00 56 1016.7
20260502212402 23 130 3.2 3.2 0.00 0.00 0.00 56 1016.7
20260502211859 23 88 1.6 1.6 0.00 0.00 0.00 56 1016.6
20260502211359 23 244 0.0 0.0 0.00 0.00 0.00 61 1016.8
20260502210857 23 247 0.0 1.6 0.00 0.00 0.00 60 1016.8
20260502210354 23 257 0.0 1.6 0.00 0.00 0.00 63 1017.1
20260502205852 23 261 1.6 1.6 0.00 0.00 0.00 61 1016.9
20260502205347 22 252 0.0 1.6 0.00 0.00 0.00 61 1017.0
20260502204844 22 130 0.0 1.6 0.00 0.00 0.00 62 1017.1
20260502204342 22 223 0.0 1.6 0.00 0.00 0.00 61 1017.0
20260502203839 22 245 0.0 1.6 0.00 0.00 0.00 63 1017.0
20260502203337 22 299 0.0 0.0 0.00 0.00 0.00 65 1017.1
20260502202832 22 40 4.8 8.0 0.00 0.00 0.00 62 1017.3
20260502202330 22 195 1.6 3.2 0.00 0.00 0.00 61 1017.2
20260502201827 22 150 0.0 1.6 0.00 0.00 0.00 63 1017.4
20260502201323 22 123 0.0 1.6 0.00 0.00 0.00 61 1017.5
20260502200820 22 104 1.6 1.6 0.00 0.00 0.00 63 1017.5
20260502200316 22 238 0.0 1.6 0.00 0.00 0.00 65 1017.5
20260502195814 22 56 0.0 1.6 0.00 0.00 0.00 65 1017.5
20260502195310 22 220 1.6 1.6 0.00 0.00 0.00 63 1017.6